Home   Weather   Inglewood   Past weeks
Flag for USA

Past Weather in Inglewood, California, USA — Yesterday and Last 2 Weeks

Now
68 °F

Clear.


Feels Like: 68 °F
Forecast: 76 / 65 °F
Wind: 3 mph from Southeast

Location: Hawthorne Municipal Airport

Current Time: Jul 17, 2019 at 12:01:10 am

Latest Report: Jul 16, 2019 at 10:53 pm


Visibility: 10 mi

Pressure: 29.85 "Hg

Humidity: 78%

Dew Point: 61 °F

Location of InglewoodLocation

Past Weather in Inglewood — Graph

°F

Inglewood Temperature Yesterday

Maximum temperature yesterday: 78 °F (at 12:53 pm)
Minimum temperature yesterday: 64 °F (at 5:53 am)
Average temperature yesterday: 70 °F

High & Low Weather Summary for the Past Weeks

 TemperatureHumidityPressure
High78 °F (Jul 13, 12:53 pm)87% (Jul 15, 4:53 am)30.06 "Hg (Jul 15, 4:53 am)
Low63 °F (Jul 10, 3:53 am)47% (Jul 2, 11:53 am)29.79 "Hg (Jul 12, 5:53 pm)
Average68 °F72%29.94 "Hg
* Reported Jul 1 9:53 pm — Jul 16 9:53 pm, Inglewood. Weather by CustomWeather, © 2019

Note: Actual official high and low records may vary slightly from our data, if they occured in-between our weather recording intervals... More about our weather records

Advertising

Inglewood Weather History for the Previous 24 Hours

Scroll right to see more
 ConditionsComfort  
Time TempWeatherWind HumidityBarometerVisibility
9:53 pm
Tue, Jul 16
68 °FMild.No wind78%29.85 "Hg10 mi
8:53 pm69 °FClear.6 mph76%29.84 "Hg10 mi
7:53 pm70 °FSunny.7 mph76%29.82 "Hg9 mi
6:53 pm73 °FSunny.8 mph69%29.81 "Hg9 mi
5:53 pm75 °FSunny.7 mph64%29.81 "Hg9 mi
4:53 pm76 °FSunny.9 mph62%29.83 "Hg10 mi
3:53 pm74 °FSunny.8 mph67%29.84 "Hg9 mi
2:53 pm77 °FSunny.10 mph60%29.85 "Hg10 mi
2:39 pm77 °FSunny.8 mph60%29.86 "Hg2 mi
1:53 pm77 °FSunny.7 mph60%29.86 "Hg9 mi
12:53 pm78 °FSunny.8 mph60%29.86 "Hg8 mi
11:53 am75 °FSunny.6 mph66%29.86 "Hg7 mi
10:53 am75 °FSunny.5 mph64%29.86 "Hg6 mi
9:53 am70 °FSunny.3 mph76%29.86 "Hg6 mi
9:04 am67 °FScattered clouds.3 mph81%29.86 "Hg4 mi
8:53 am67 °FPartly sunny.5 mph81%29.86 "Hg4 mi
8:24 am66 °FPartly sunny.No wind84%29.85 "Hg4 mi
8:02 am66 °FPartly sunny.No wind84%29.85 "Hg3 mi
6:53 am64 °FSunny.No wind84%29.83 "Hg4 mi
5:53 am64 °FSunny.3 mph84%29.82 "Hg8 mi
4:53 am66 °FClear.No wind78%29.81 "Hg8 mi
3:53 am66 °FClear.No wind78%29.81 "Hg8 mi
2:53 am66 °FClear.No wind78%29.81 "Hg8 mi
1:53 am65 °FClear.No wind85%29.82 "Hg6 mi
12:53 am65 °FClear.No wind85%29.84 "Hg6 mi
Weather by CustomWeather, © 2019

See weather overview